Date,TemperatureHighF,TemperatureAvgF,TemperatureLowF,DewpointHighF,DewpointAvgF,DewpointLowF,HumidityHigh,HumidityAvg,HumidityLow,PressureMaxIn,PressureMinIn,WindSpeedMaxMPH,WindSpeedAvgMPH,GustSpeedMaxMPH,PrecipitationSumIn
2013-1-1,37,34,24,30,25,12,82,70,59,30.04,29.88,4,1,6,0.05
2013-1-2,33,25,20,17,13,10,69,62,49,30.23,30.02,3,0,8,0.00
2013-1-3,33,26,20,18,15,14,77,65,49,30.24,30.11,2,0,5,0.00
2013-1-4,37,31,25,22,20,18,74,65,55,30.14,30.00,5,1,8,0.00
2013-1-5,44,33,28,24,20,17,71,61,43,30.32,30.06,3,0,7,0.00
2013-1-6,48,36,29,32,27,22,94,70,46,30.24,30.00,3,0,5,0.00
2013-1-7,46,36,30,29,25,20,79,64,42,30.42,30.09,3,0,5,0.00
2013-1-8,49,36,27,32,27,23,84,71,50,30.45,30.37,2,0,5,0.00
2013-1-9,46,39,32,37,32,27,85,76,70,30.41,30.17,2,0,6,0.00
2013-1-10,50,40,35,32,26,23,73,57,37,30.57,30.28,6,1,7,0.00
2013-1-11,45,40,34,43,32,22,96,76,53,30.56,30.11,2,0,5,0.46
2013-1-12,47,43,40,45,42,39,97,96,93,30.19,30.10,2,0,2,0.00
2013-1-13,48,44,42,48,44,41,98,97,97,30.17,30.03,4,0,4,0.05
2013-1-14,54,48,37,53,43,28,98,84,52,30.30,29.93,3,0,4,0.10
2013-1-15,37,35,32,35,30,27,93,80,69,30.36,30.23,2,0,3,0.11
2013-1-16,34,32,31,33,31,29,97,95,91,30.23,29.84,2,0,4,0.44
2013-1-17,42,36,33,33,29,24,94,75,60,30.12,29.94,4,1,5,0.14
2013-1-18,33,27,22,25,13,5,76,56,36,30.51,30.02,3,0,8,0.00
2013-1-19,49,36,23,28,22,11,76,59,43,30.44,29.96,9,1,9,0.00
2013-1-20,53,40,27,30,22,11,74,52,26,30.06,29.73,6,2,11,0.00
2013-1-21,30,26,19,16,11,9,71,55,43,30.12,29.88,2,0,6,0.00
2013-1-22,23,17,10,9,-1,-7,59,47,32,30.26,29.88,8,2,11,0.00
2013-1-23,20,12,7,0,-3,-8,69,52,37,30.30,30.21,6,1,6,0.00
2013-1-24,24,14,7,3,-1,-3,76,54,30,30.48,30.18,7,1,8,0.00
2013-1-25,22,14,8,13,3,-5,90,63,44,30.49,30.13,2,0,5,0.00
2013-1-26,28,18,10,11,8,5,89,67,44,30.44,30.11,5,1,6,0.00
2013-1-27,36,23,14,14,10,6,73,59,38,30.59,30.44,3,1,5,0.00
2013-1-28,32,28,22,31,23,11,96,82,57,30.54,30.06,1,0,6,0.00
2013-1-29,53,42,32,44,39,31,97,91,70,30.18,30.06,1,0,4,0.03
2013-1-30,64,51,41,59,50,40,98,94,79,30.09,29.37,3,0,11,0.09
2013-1-31,59,42,26,58,30,10,97,65,39,29.81,29.06,13,3,15,1.39